This demonstration page uses our WeatherBlox Daily Observations layout. Learn more.

Left ArrowRight Arrow

39.92423, -83.80882

Hourly Observations for May 16, 2018

Temp ( °F °C ) Dew Point ( °F °C ) Humidity (%) Winds ( mph kmh ) Pressure ( in mb ) Visibility ( mi km ) Precip ( " mm )
12:56 am 00:56 Clear 63 17.2 61 16.1 93 93 NE 9 15 29.96 1015 9 14.48406 0.11 2.794
1:36 am 01:36 Cloudy 63 17 61 16 94 94 ENE 8 13 29.97 1015 10 16.0934 0.03 0.762
1:56 am 01:56 Cloudy 63 17.2 61 16.1 93 93 NE 7 11 29.96 1015 10 16.0934 0.05 1.27
2:42 am 02:42 Cloudy 63 17 61 16 94 94 ENE 10 17 29.97 1015 10 16.0934 0.02 0.508
2:56 am 02:56 Cloudy 63 17.2 60 15.6 90 90 ENE 8 13 29.95 1014 10 16.0934 0.03 0.762
3:56 am 03:56 Cloudy 62 16.7 59 15 90 90 NE 7 11 29.95 1014 10 16.0934 0.01 0.254
4:56 am 04:56 Partly Cloudy 61 16.1 60 15.6 97 97 ENE 6 9 29.93 1014 10 16.0934 0.01 0.254
5:56 am 05:56 Cloudy 61 16.1 59 15 93 93 NE 7 11 29.94 1014 10 16.0934 0.02 0.508
6:56 am 06:56 Cloudy 61 16.1 59 15 93 93 ENE 8 13 29.94 1014 10 16.0934 0 0.0254
7:38 am 07:38 Cloudy 61 16 59 15 94 94 ENE 5 7 29.97 1015 10 16.0934 0.01 0.254
7:56 am 07:56 Cloudy 62 16.7 59 15 90 90 NE 3 6 29.98 1015 10 16.0934 0.01 0.254
8:44 am 08:44 Cloudy with Rain 63 17 59 15 88 88 E 9 15 29.97 1015 7 11.26538 0.01 0.254
8:56 am 08:56 Cloudy with Light Rain 61 16.1 59 15 93 93 E 8 13 29.98 1015 9 14.48406 0.01 0.254
9:56 am 09:56 Cloudy with Light Rain 63 17.2 62 16.7 97 97 undefined N/A 29.98 1015 10 16.0934 0.01 0.254
10:48 am 10:48 Mostly Cloudy 64 18 63 17 94 94 ENE 5 7 29.94 1014 9 14.48406 0.01 0.254
10:56 am 10:56 Mostly Cloudy 66 18.9 63 17.2 90 90 E 6 9 29.98 1015 9 14.48406 0.01 0.254
11:56 am 11:56 Cloudy 68 20 65 18.3 90 90 ESE 7 11 29.99 1016 8 12.87472 0.01 0.254
12:43 pm 12:43 Cloudy 70 21 64 18 83 83 VRB 5 7 29.97 1015 10 16.0934 0 0
12:56 pm 12:56 Cloudy 70 21.1 65 18.3 84 84 NE 5 7 29.98 1015 9 14.48406 0 0
1:39 pm 13:39 Cloudy 72 22 64 18 78 78 NNE 7 11 29.94 1014 10 16.0934 0 0
1:56 pm 13:56 Cloudy 72 22.2 65 18.3 79 79 VRB 5 7 29.97 1015 10 16.0934 0 0
2:45 pm 14:45 Cloudy 72 22 64 18 78 78 NE 8 13 29.94 1014 10 16.0934 0 0
2:56 pm 14:56 Cloudy 73 22.8 65 18.3 76 76 NE 8 13 29.95 1014 10 16.0934 0 0
3:56 pm 15:56 Cloudy 73 22.8 65 18.3 76 76 E 7 11 29.94 1014 10 16.0934 0 0
4:56 pm 16:56 Mostly Cloudy 73 22.8 64 17.8 74 74 NE 7 11 29.93 1014 10 16.0934 0 0
5:56 pm 17:56 Partly Cloudy 72 22.2 65 18.3 79 79 NE 7 11 29.93 1013 10 16.0934 0 0
6:56 pm 18:56 Mostly Sunny 71 21.7 65 18.3 81 81 ENE 7 11 29.92 1013 10 16.0934 0 0
7:56 pm 19:56 Mostly Sunny 71 21.7 65 18.3 81 81 NE 7 11 29.92 1013 10 16.0934 0 0
8:56 pm 20:56 Partly Cloudy 69 20.6 64 17.8 84 84 NNE 7 11 29.95 1014 10 16.0934 0 0
9:56 pm 21:56 Clear 67 19.4 63 17.2 87 87 NE 7 11 29.96 1014 10 16.0934 0 0
10:56 pm 22:56 Clear 66 18.9 63 17.2 90 90 NE 6 9 29.96 1015 10 16.0934 0 0
11:18 pm 23:18 Mostly Cloudy 66 19 63 17 88 88 NNE 5 7 29.94 1014 10 16.0934 0 0
11:56 pm 23:56 Cloudy 67 19.4 63 17.2 87 87 NNE 8 13 29.95 1014 10 16.0934 0 0

Powered by AerisWeather